Time,TemperatureF,DewpointF,PressureIn,WindDirection,WindDirectionDegrees,WindSpeedMPH,WindSpeedGustMPH,Humidity,HourlyPrecipIn,Conditions,Clouds,dailyrainin,SoftwareType,DateUTC
2013-01-23 00:02:00,19.0,8.0,30.45,NNW,340,0.0,4.0,62,0.00,,,0.00,,2013-01-23 06:02:00,
2013-01-23 00:12:00,19.0,8.0,30.45,NNW,340,0.0,4.0,62,0.00,,,0.00,,2013-01-23 06:12:00,
2013-01-23 00:22:00,19.0,8.0,30.45,NNW,340,0.0,0.0,62,0.00,,,0.00,,2013-01-23 06:22:00,
2013-01-23 00:32:00,19.0,9.0,30.45,NNW,340,0.0,0.0,63,0.00,,,0.00,,2013-01-23 06:32:00,
2013-01-23 00:42:00,19.0,9.0,30.45,NNW,340,0.0,0.0,63,0.00,,,0.00,,2013-01-23 06:42:00,
2013-01-23 00:52:00,19.0,9.0,30.44,NNW,340,0.0,0.0,64,0.00,,,0.00,,2013-01-23 06:52:00,
2013-01-23 01:02:00,19.0,9.0,30.44,NNW,340,0.0,0.0,63,0.00,,,0.00,,2013-01-23 07:02:00,
2013-01-23 01:12:00,19.0,9.0,30.44,NNW,340,0.0,0.0,63,0.00,,,0.00,,2013-01-23 07:12:00,
2013-01-23 01:22:00,19.0,9.0,30.44,NNW,340,0.0,0.0,63,0.00,,,0.00,,2013-01-23 07:22:00,
2013-01-23 01:33:00,19.0,9.0,30.44,NNW,340,0.0,0.0,64,0.00,,,0.00,,2013-01-23 07:33:00,
2013-01-23 01:42:00,19.0,9.0,30.44,NNW,340,0.0,0.0,64,0.00,,,0.00,,2013-01-23 07:42:00,
2013-01-23 01:52:00,19.0,9.0,30.44,NNW,340,0.0,0.0,65,0.00,,,0.00,,2013-01-23 07:52:00,
2013-01-23 02:02:00,19.0,9.0,30.43,NNW,340,0.0,0.0,64,0.00,,,0.00,,2013-01-23 08:02:00,
2013-01-23 02:13:00,19.0,9.0,30.43,NNW,340,0.0,0.0,64,0.00,,,0.00,,2013-01-23 08:13:00,
2013-01-23 02:22:00,19.0,9.0,30.43,NNW,340,0.0,0.0,65,0.00,,,0.00,,2013-01-23 08:22:00,
2013-01-23 02:33:00,18.0,9.0,30.44,NNW,340,0.0,0.0,68,0.00,,,0.00,,2013-01-23 08:33:00,
2013-01-23 02:42:00,18.0,9.0,30.44,NNW,340,0.0,0.0,68,0.00,,,0.00,,2013-01-23 08:42:00,
2013-01-23 02:52:00,18.0,11.0,30.43,NNW,340,0.0,0.0,72,0.00,,,0.00,,2013-01-23 08:52:00,
2013-01-23 03:03:00,17.0,10.0,30.43,NNW,340,0.0,0.0,74,0.00,,,0.00,,2013-01-23 09:03:00,
2013-01-23 03:12:00,17.0,10.0,30.43,NNW,340,0.0,0.0,74,0.00,,,0.00,,2013-01-23 09:12:00,
2013-01-23 03:22:00,17.0,11.0,30.43,NNW,340,0.0,0.0,76,0.00,,,0.00,,2013-01-23 09:22:00,
2013-01-23 03:32:00,16.0,10.0,30.43,NNW,340,0.0,0.0,78,0.00,,,0.00,,2013-01-23 09:32:00,
2013-01-23 03:43:00,16.0,10.0,30.43,NNW,340,0.0,0.0,78,0.00,,,0.00,,2013-01-23 09:43:00,
2013-01-23 03:52:00,16.0,11.0,30.42,NNW,340,0.0,0.0,80,0.00,,,0.00,,2013-01-23 09:52:00,
2013-01-23 04:03:00,16.0,11.0,30.41,NNW,340,0.0,0.0,80,0.00,,,0.00,,2013-01-23 10:03:00,
2013-01-23 04:12:00,16.0,11.0,30.41,NNW,340,0.0,0.0,80,0.00,,,0.00,,2013-01-23 10:12:00,
2013-01-23 04:23:00,16.0,10.0,30.40,NNW,342,3.0,5.0,78,0.00,,,0.00,,2013-01-23 10:23:00,
2013-01-23 04:33:00,16.0,11.0,30.40,SSE,156,0.0,4.0,79,0.00,,,0.00,,2013-01-23 10:33:00,
2013-01-23 04:43:00,16.0,11.0,30.40,SSE,156,0.0,4.0,79,0.00,,,0.00,,2013-01-23 10:43:00,
2013-01-23 04:52:00,16.0,11.0,30.40,SSE,156,0.0,1.0,80,0.00,,,0.00,,2013-01-23 10:52:00,
2013-01-23 05:02:00,15.0,10.0,30.39,SSE,156,0.0,0.0,81,0.00,,,0.00,,2013-01-23 11:02:00,
2013-01-23 05:12:00,15.0,10.0,30.39,SSE,156,0.0,0.0,81,0.00,,,0.00,,2013-01-23 11:12:00,
2013-01-23 05:23:00,15.0,11.0,30.40,SSE,156,0.0,0.0,82,0.00,,,0.00,,2013-01-23 11:23:00,
2013-01-23 05:33:00,15.0,10.0,30.40,SSE,156,0.0,0.0,81,0.00,,,0.00,,2013-01-23 11:33:00,
2013-01-23 05:43:00,15.0,10.0,30.40,SSE,156,0.0,0.0,81,0.00,,,0.00,,2013-01-23 11:43:00,
2013-01-23 05:53:00,15.0,11.0,30.39,SSE,156,0.0,0.0,82,0.00,,,0.00,,2013-01-23 11:53:00,
2013-01-23 06:03:00,15.0,11.0,30.40,SSE,156,0.0,0.0,82,0.00,,,0.00,,2013-01-23 12:03:00,
2013-01-23 06:12:00,15.0,11.0,30.40,SSE,156,0.0,0.0,82,0.00,,,0.00,,2013-01-23 12:12:00,
2013-01-23 06:22:00,15.0,11.0,30.40,SSE,156,0.0,0.0,82,0.00,,,0.00,,2013-01-23 12:22:00,
2013-01-23 06:33:00,15.0,11.0,30.40,SSE,156,0.0,0.0,83,0.00,,,0.00,,2013-01-23 12:33:00,
2013-01-23 06:43:00,15.0,11.0,30.40,SSE,156,0.0,0.0,83,0.00,,,0.00,,2013-01-23 12:43:00,
2013-01-23 06:52:00,14.0,10.0,30.40,SSE,156,0.0,0.0,82,0.00,,,0.00,,2013-01-23 12:52:00,
2013-01-23 07:03:00,14.0,10.0,30.40,SSE,156,0.0,0.0,83,0.00,,,0.00,,2013-01-23 13:03:00,
2013-01-23 07:13:00,14.0,10.0,30.40,SSE,156,0.0,0.0,83,0.00,,,0.00,,2013-01-23 13:13:00,
2013-01-23 07:23:00,14.0,10.0,30.40,SSE,156,0.0,0.0,84,0.00,,,0.00,,2013-01-23 13:23:00,
2013-01-23 07:33:00,15.0,11.0,30.40,SSE,156,1.0,4.0,83,0.00,,,0.00,,2013-01-23 13:33:00,
2013-01-23 07:42:00,15.0,11.0,30.40,SSE,156,1.0,4.0,83,0.00,,,0.00,,2013-01-23 13:42:00,
2013-01-23 07:52:00,15.0,11.0,30.40,SSE,162,1.0,4.0,82,0.00,,,0.00,,2013-01-23 13:52:00,
2013-01-23 08:03:00,16.0,11.0,30.40,SSE,161,2.0,5.0,81,0.00,,,0.00,,2013-01-23 14:03:00,
2013-01-23 08:12:00,16.0,11.0,30.40,SSE,161,2.0,5.0,81,0.00,,,0.00,,2013-01-23 14:12:00,
2013-01-23 08:23:00,17.0,12.0,30.40,SSE,155,4.0,6.0,79,0.00,,,0.00,,2013-01-23 14:23:00,
2013-01-23 08:33:00,18.0,12.0,30.40,SSE,165,3.0,6.0,78,0.00,,,0.00,,2013-01-23 14:33:00,
2013-01-23 08:43:00,18.0,12.0,30.40,SSE,165,3.0,6.0,78,0.00,,,0.00,,2013-01-23 14:43:00,
2013-01-23 08:53:00,19.0,13.0,30.40,SE,142,5.0,7.0,77,0.00,,,0.00,,2013-01-23 14:53:00,
2013-01-23 09:03:00,21.0,15.0,30.40,SSE,162,4.0,9.0,77,0.00,,,0.00,,2013-01-23 15:03:00,
2013-01-23 09:12:00,21.0,15.0,30.40,SSE,162,4.0,9.0,77,0.00,,,0.00,,2013-01-23 15:12:00,
2013-01-23 09:23:00,22.0,15.0,30.39,SSE,166,6.0,9.0,74,0.00,,,0.00,,2013-01-23 15:23:00,
2013-01-23 09:33:00,22.0,14.0,30.39,South,178,5.0,8.0,72,0.00,,,0.00,,2013-01-23 15:33:00,
2013-01-23 09:43:00,22.0,14.0,30.39,South,178,5.0,8.0,72,0.00,,,0.00,,2013-01-23 15:43:00,
2013-01-23 09:53:00,23.0,15.0,30.39,South,169,7.0,15.0,70,0.00,,,0.00,,2013-01-23 15:53:00,
2013-01-23 10:03:00,24.0,15.0,30.38,SSE,168,8.0,12.0,68,0.00,,,0.00,,2013-01-23 16:03:00,
2013-01-23 10:12:00,24.0,15.0,30.38,SSE,168,8.0,12.0,68,0.00,,,0.00,,2013-01-23 16:12:00,
2013-01-23 10:23:00,24.0,14.0,30.37,South,178,8.0,12.0,65,0.00,,,0.00,,2013-01-23 16:23:00,
2013-01-23 10:33:00,25.0,15.0,30.37,South,188,6.0,12.0,65,0.00,,,0.00,,2013-01-23 16:33:00,
2013-01-23 10:42:00,25.0,15.0,30.37,South,188,6.0,12.0,65,0.00,,,0.00,,2013-01-23 16:42:00,
2013-01-23 10:52:00,26.0,14.0,30.37,SSE,162,6.0,10.0,61,0.00,,,0.00,,2013-01-23 16:52:00,
2013-01-23 11:03:00,27.0,15.0,30.37,SSE,167,2.0,10.0,60,0.00,,,0.00,,2013-01-23 17:03:00,
2013-01-23 11:12:00,27.0,15.0,30.37,SSE,167,2.0,10.0,60,0.00,,,0.00,,2013-01-23 17:12:00,
2013-01-23 11:23:00,27.0,14.0,30.36,SSE,160,7.0,10.0,57,0.00,,,0.00,,2013-01-23 17:23:00,
2013-01-23 11:33:00,28.0,15.0,30.35,South,180,5.0,10.0,58,0.00,,,0.00,,2013-01-23 17:33:00,
2013-01-23 11:42:00,28.0,15.0,30.35,South,180,5.0,10.0,58,0.00,,,0.00,,2013-01-23 17:42:00,
2013-01-23 11:52:00,29.0,15.0,30.32,SSW,200,7.0,11.0,56,0.00,,,0.00,,2013-01-23 17:52:00,
2013-01-23 12:03:00,30.0,15.0,30.32,South,174,5.0,9.0,54,0.00,,,0.00,,2013-01-23 18:03:00,
2013-01-23 12:12:00,30.0,15.0,30.32,South,174,5.0,9.0,54,0.00,,,0.00,,2013-01-23 18:12:00,
2013-01-23 12:23:00,30.0,16.0,30.30,South,188,7.0,12.0,55,0.00,,,0.00,,2013-01-23 18:23:00,
2013-01-23 12:33:00,30.0,16.0,30.30,South,188,7.0,12.0,55,0.00,,,0.00,,2013-01-23 18:33:00,
2013-01-23 12:43:00,30.0,16.0,30.30,South,188,7.0,12.0,55,0.00,,,0.00,,2013-01-23 18:43:00,
2013-01-23 12:53:00,32.0,18.0,30.27,SSW,213,6.0,13.0,56,0.00,,,0.00,,2013-01-23 18:53:00,
2013-01-23 13:03:00,33.0,19.0,30.26,SW,232,7.0,13.0,56,0.00,,,0.00,,2013-01-23 19:03:00,
2013-01-23 13:13:00,33.0,19.0,30.26,SW,232,7.0,13.0,56,0.00,,,0.00,,2013-01-23 19:13:00,
2013-01-23 13:23:00,33.0,20.0,30.26,SSW,212,6.0,11.0,59,0.00,,,0.00,,2013-01-23 19:23:00,
2013-01-23 13:33:00,33.0,20.0,30.26,SSW,212,6.0,11.0,59,0.00,,,0.00,,2013-01-23 19:33:00,
2013-01-23 13:43:00,33.0,20.0,30.26,SSW,212,6.0,11.0,59,0.00,,,0.00,,2013-01-23 19:43:00,
2013-01-23 14:03:00,34.0,20.0,30.23,SW,223,6.0,11.0,57,0.00,,,0.00,,2013-01-23 20:03:00,
2013-01-23 14:13:00,34.0,20.0,30.23,SW,223,6.0,11.0,57,0.00,,,0.00,,2013-01-23 20:13:00,
2013-01-23 14:23:00,35.0,20.0,30.23,WSW,242,5.0,9.0,55,0.00,,,0.00,,2013-01-23 20:23:00,
2013-01-23 14:33:00,35.0,20.0,30.22,WSW,242,2.0,7.0,53,0.00,,,0.00,,2013-01-23 20:33:00,
2013-01-23 14:43:00,35.0,20.0,30.22,WSW,242,2.0,7.0,53,0.00,,,0.00,,2013-01-23 20:43:00,
2013-01-23 14:53:00,36.0,21.0,30.21,WSW,255,5.0,10.0,53,0.00,,,0.00,,2013-01-23 20:53:00,
2013-01-23 15:03:00,36.0,23.0,30.21,SW,225,7.0,13.0,58,0.00,,,0.00,,2013-01-23 21:03:00,
2013-01-23 15:12:00,36.0,23.0,30.21,SW,225,7.0,13.0,58,0.00,,,0.00,,2013-01-23 21:12:00,
2013-01-23 15:23:00,36.0,23.0,30.21,SW,215,7.0,10.0,58,0.00,,,0.00,,2013-01-23 21:23:00,
2013-01-23 15:33:00,36.0,23.0,30.20,SW,217,6.0,9.0,59,0.00,,,0.00,,2013-01-23 21:33:00,
2013-01-23 15:42:00,36.0,23.0,30.20,SW,217,6.0,9.0,59,0.00,,,0.00,,2013-01-23 21:42:00,
2013-01-23 15:52:00,36.0,23.0,30.20,SSW,207,6.0,9.0,59,0.00,,,0.00,,2013-01-23 21:52:00,
2013-01-23 16:02:00,36.0,23.0,30.20,SW,227,4.0,8.0,60,0.00,,,0.00,,2013-01-23 22:02:00,
2013-01-23 16:12:00,36.0,23.0,30.20,SW,227,4.0,8.0,60,0.00,,,0.00,,2013-01-23 22:12:00,
2013-01-23 16:23:00,36.0,24.0,30.19,SSW,212,5.0,8.0,62,0.00,,,0.00,,2013-01-23 22:23:00,
2013-01-23 16:33:00,36.0,24.0,30.19,SW,234,6.0,8.0,61,0.00,,,0.00,,2013-01-23 22:33:00,
2013-01-23 16:42:00,36.0,24.0,30.19,SW,234,6.0,8.0,61,0.00,,,0.00,,2013-01-23 22:42:00,
2013-01-23 16:53:00,35.0,24.0,30.19,SW,224,6.0,9.0,63,0.00,,,0.00,,2013-01-23 22:53:00,
2013-01-23 17:03:00,34.0,23.0,30.18,SW,236,4.0,6.0,65,0.00,,,0.00,,2013-01-23 23:03:00,
2013-01-23 17:12:00,34.0,23.0,30.18,SW,236,4.0,6.0,65,0.00,,,0.00,,2013-01-23 23:12:00,
2013-01-23 17:23:00,34.0,24.0,30.18,SW,234,2.0,6.0,67,0.00,,,0.00,,2013-01-23 23:23:00,
2013-01-23 17:33:00,34.0,24.0,30.18,SW,234,2.0,6.0,67,0.00,,,0.00,,2013-01-23 23:33:00,
2013-01-23 17:43:00,34.0,24.0,30.18,SW,234,2.0,6.0,67,0.00,,,0.00,,2013-01-23 23:43:00,
2013-01-23 17:53:00,33.0,23.0,30.19,West,259,0.0,1.0,66,0.00,,,0.00,,2013-01-23 23:53:00,
2013-01-23 18:03:00,33.0,24.0,30.19,WSW,247,0.0,1.0,68,0.00,,,0.00,,2013-01-24 00:03:00,
2013-01-23 18:12:00,33.0,24.0,30.19,WSW,247,0.0,1.0,68,0.00,,,0.00,,2013-01-24 00:12:00,
2013-01-23 18:22:00,32.0,23.0,30.19,SW,225,2.0,5.0,69,0.00,,,0.00,,2013-01-24 00:22:00,
2013-01-23 18:32:00,32.0,24.0,30.19,WSW,248,2.0,5.0,71,0.00,,,0.00,,2013-01-24 00:32:00,
2013-01-23 18:42:00,32.0,24.0,30.19,WSW,248,2.0,5.0,71,0.00,,,0.00,,2013-01-24 00:42:00,
2013-01-23 18:53:00,32.0,23.0,30.19,NW,304,0.0,2.0,69,0.00,,,0.00,,2013-01-24 00:53:00,
2013-01-23 19:03:00,32.0,23.0,30.20,WNW,286,1.0,4.0,69,0.00,,,0.00,,2013-01-24 01:03:00,
2013-01-23 19:12:00,32.0,23.0,30.20,WNW,286,1.0,4.0,69,0.00,,,0.00,,2013-01-24 01:12:00,
2013-01-23 19:23:00,32.0,23.0,30.21,WNW,286,1.0,3.0,68,0.00,,,0.00,,2013-01-24 01:23:00,
2013-01-23 19:33:00,32.0,23.0,30.21,WNW,286,1.0,5.0,68,0.00,,,0.00,,2013-01-24 01:33:00,
2013-01-23 19:42:00,32.0,23.0,30.21,WNW,286,1.0,5.0,68,0.00,,,0.00,,2013-01-24 01:42:00,
2013-01-23 19:52:00,32.0,23.0,30.21,WNW,288,1.0,5.0,68,0.00,,,0.00,,2013-01-24 01:52:00,
2013-01-23 20:02:00,32.0,23.0,30.21,WNW,288,1.0,5.0,68,0.00,,,0.00,,2013-01-24 02:02:00,
2013-01-23 20:12:00,32.0,23.0,30.21,WNW,288,1.0,5.0,68,0.00,,,0.00,,2013-01-24 02:12:00,
2013-01-23 20:22:00,31.0,23.0,30.23,WNW,288,4.0,6.0,71,0.00,,,0.00,,2013-01-24 02:22:00,
2013-01-23 20:33:00,31.0,23.0,30.23,WNW,288,1.0,3.0,72,0.00,,,0.00,,2013-01-24 02:33:00,
2013-01-23 20:42:00,31.0,23.0,30.23,WNW,288,1.0,3.0,72,0.00,,,0.00,,2013-01-24 02:42:00,
2013-01-23 20:52:00,31.0,23.0,30.23,WNW,288,1.0,3.0,72,0.00,,,0.00,,2013-01-24 02:52:00,
2013-01-23 21:02:00,30.0,22.0,30.23,West,259,0.0,2.0,73,0.00,,,0.00,,2013-01-24 03:02:00,
2013-01-23 21:12:00,30.0,22.0,30.23,West,259,0.0,2.0,73,0.00,,,0.00,,2013-01-24 03:12:00,
2013-01-23 21:22:00,30.0,22.0,30.24,WNW,289,1.0,5.0,73,0.00,,,0.00,,2013-01-24 03:22:00,
2013-01-23 21:33:00,31.0,23.0,30.24,WNW,284,1.0,5.0,73,0.00,,,0.00,,2013-01-24 03:33:00,
2013-01-23 21:43:00,31.0,23.0,30.24,WNW,284,1.0,5.0,73,0.00,,,0.00,,2013-01-24 03:43:00,
2013-01-23 21:52:00,30.0,22.0,30.25,WNW,292,2.0,5.0,73,0.00,,,0.00,,2013-01-24 03:52:00,
2013-01-23 22:02:00,31.0,23.0,30.26,West,272,3.0,7.0,73,0.00,,,0.00,,2013-01-24 04:02:00,
2013-01-23 22:12:00,31.0,23.0,30.26,West,272,3.0,7.0,73,0.00,,,0.00,,2013-01-24 04:12:00,
2013-01-23 22:22:00,31.0,23.0,30.26,NW,313,6.0,11.0,71,0.00,,,0.00,,2013-01-24 04:22:00,
2013-01-23 22:32:00,31.0,23.0,30.26,NW,325,4.0,12.0,71,0.00,,,0.00,,2013-01-24 04:32:00,
2013-01-23 22:42:00,31.0,23.0,30.26,NW,325,4.0,12.0,71,0.00,,,0.00,,2013-01-24 04:42:00,
2013-01-23 22:52:00,31.0,23.0,30.27,NW,321,7.0,13.0,71,0.00,,,0.00,,2013-01-24 04:52:00,
2013-01-23 23:03:00,31.0,23.0,30.28,NW,323,9.0,18.0,71,0.00,,,0.00,,2013-01-24 05:03:00,
2013-01-23 23:12:00,31.0,23.0,30.28,NW,323,9.0,18.0,71,0.00,,,0.00,,2013-01-24 05:12:00,
2013-01-23 23:22:00,30.0,21.0,30.28,NW,321,10.0,16.0,68,0.00,,,0.00,,2013-01-24 05:22:00,
2013-01-23 23:33:00,29.0,20.0,30.30,NNW,328,11.0,18.0,68,0.00,,,0.00,,2013-01-24 05:33:00,
2013-01-23 23:42:00,29.0,20.0,30.30,NNW,328,11.0,18.0,68,0.00,,,0.00,,2013-01-24 05:42:00,
2013-01-23 23:52:00,29.0,21.0,30.31,NNW,331,9.0,15.0,71,0.00,,,0.00,,2013-01-24 05:52:00,